www.pogodaiklimat.ru

Погода и климат >> Архив погоды >> Антарктида >> Marambio Base


ПОГОДА в Marambio Base

  • Прогноз погоды в Marambio Base
  • Монитор погоды в Marambio Base
  • Климат города

АРХИВ ПОГОДЫ в Marambio Base

Время (UTC), дата Ветер
(напр.,м/с)
 
Видим.   Явления Облачность Т
(С)
Тd
(С)
f
(%)
Тe
(С)
Тes
(С)
Комфортность P
(гПа)
Po
(гПа)
Тmin
(С)
Tmax
(С)
R
(мм)
R24
(мм)
S
(см)
00 20.05 СЗ 14 15 км ясно -0.9 -1.0 99 -11 -11 995.2 970.8 -3.2 -0.8
03 20.05 СЗ 16 8000 м позёмок {метель} ясно -0.2 -0.5 98 -10 -10 994.7 970.2
06 20.05 С 20 8000 м позёмок {метель} 8/8 180 м
[St]
-0.7 -0.8 99 -12 -12 992.9 968.5
09 20.05 СЗ 11 15 км {метель} ясно -1.2 -1.4 99 -10 -10 993.5 969.0
15 20.05 СЗ 9 15 км 6/0
[Cs]
+0.2 -0.9 92 -8 -8 994.7 970.4
18 20.05 СЗ 12 15 км 9/3 1500 м
[Sc Cs]
0.0 -0.8 94 -9 -9 993.5 969.2 0.0
21 20.05 С 10 300 м туман 3/1 60 м
[St Cs]
-1.6 -1.8 99 -11 -11 992.7 968.2
00 21.05 С 10 15 км {туман} 6/0
[Ac As Cs]
-0.6 -0.7 99 -9 -9 990.7 966.5 -2.1 +1.2
03 21.05 С 8 900 м туман местами 9/0
[Ac As Cs]
-1.0 -1.1 99 -9 -9 988.6 964.4
06 21.05 СЗ 6 900 м туман 10/0
[Ac As Cs]
-1.6 -1.8 99 -9 -9 986.6 962.4
09 21.05 СЗ 6 300 м туман ясно -2.5 -2.8 98 -10 -10 985.8 961.6
12 21.05 З 6 10 км дымка {туман} 10/9 60 м
[St Cs]
-1.4 -1.6 99 -9 -9 986.1 961.8 -3.1 -0.3
15 21.05 СЗ 4 5000 м осадки на расстоянии 10/8 90 м
[St Cs]
-2.7 -3.1 97 -9 -9 987.8 963.4
18 21.05 СЗ 5 5000 м слабый снег {туман} 10/10 60 м
[St]
-1.6 -1.8 99 -8 -8 988.5 964.2
21 21.05 С 3 900 м слабый снег 10/10 60 м
[St]
-3.0 -3.4 97 -9 -9 989.2 964.8
00 22.05 З 3 900 м слабый снег 10/10 90 м
[St]
-2.1 -2.4 98 -7 -7 988.7 964.4 -3.1 -0.8
03 22.05 Ю 3 600 м слабый снег {туман} 10/10 90 м
[St]
-5.1 -5.8 95 -11 -11 988.8 964.2
06 22.05 Ю 5 600 м слабый снег {туман} туман 10/10 300 м
[St]
-3.8 -4.3 96 -11 -11 987.8 963.4
09 22.05 Ю 9 5000 м слабый снег {туман} 9/0
[Ac As Cs]
-8.9 -10.0 92 -19 -19 987.3 962.6
12 22.05 Ю 11 8000 м дымка {снег} 9/0
[Ac As Cs]
-10.3 -11.6 90 -21 -21 987.2 962.5 -11.1 -0.8
15 22.05 Ю 11 8000 м дымка 10/0
[Ac As Cs]
-9.3 -10.4 92 -20 -20 987.2 962.5
18 22.05 Ю 11 8000 м дымка 10/0
[Ac As Cs]
-10.9 -12.2 90 -22 -22 987.8 963.0
21 22.05 Ю 10 800 м туман {метель} 10/3 60 м
[St Ac As]
-13.3 -14.9 88 -25 -25 989.1 963.8
00 23.05 Ю 8 900 м туман {метель} 10/10 150 м
[St]
-14.3 -16.0 87 -25 -25 990.0 964.6 -14.4 -9.3
03 23.05 Ю 8 7000 м слабый снег {туман} 10/10 210 м
[St]
-15.1 -16.9 86 -26 -26 989.9 964.6
06 23.05 Ю 7 7000 м слабый снег {туман} туман 10/10 210 м
[St]
-15.4 -17.2 86 -26 -26 990.3 964.9
09 23.05 Ю 7 8000 м слабый снег туман 10/10 150 м
[St]
-16.4 -18.3 85 -27 -27 991.8 966.2
12 23.05 Ю 3 8000 м дымка {снег} 10/10 180 м
[St]
-17.2 -19.2 84 -24 -24 992.8 967.0 -17.3 -14.1
15 23.05 СЗ 5 200 м переохл. туман 10/10 60 м
[St]
-14.5 -16.2 87 -23 -23 993.4 967.8
18 23.05 СЗ 7 200 м слабый снег {туман} туман 10/10 60 м
[St]
-13.7 -15.3 88 -23 -23 992.3 966.6
21 23.05 С 7 100 м переохл. туман {снег} 10/10 60 м
[St]
-11.4 -12.8 89 -21 -21 991.2 965.7
00 24.05 С 7 15 км в посл. час туман {снег} 5/0
[Cs]
-9.7 -10.9 91 -19 -19 988.9 963.4 -17.5 -9.7
03 24.05 СЗ 9 15 км 6/0
[Cs]
-6.8 -7.7 93 -17 -17 985.6 960.6
06 24.05 С 9 15 км 9/0
[Cs]
-3.9 -4.4 96 -13 -13 981.9 957.0
09 24.05 СЗ 14 8000 м позёмок {метель} 1/0
[Cs]
-9.5 -10.6 92 -19 -19 976.6 952.1
12 24.05 ЮЗ 17 15 км позёмок {метель} ясно -16.3 -18.2 85 -32 -32 опасность
обморожения
978.0 952.9 -16.4 -2.4 0.0
15 24.05 ЮЗ 16 15 км позёмок {метель} 6/0
[Ac As Cs]
-17.1 -19.1 84 -32 -32 опасность
обморожения
980.4 955.4
18 24.05 ЮЗ 21 900 м сильная метель 6/3 1500 м
[Sc Ac As Cs]
-17.1 -19.1 84 -34 -34 опасность
обморожения
981.1 956.2
21 24.05 ЮЗ 22 800 м сильная метель 3/0
[Cs]
-17.5 -19.5 84 -35 -35 опасность
обморожения
982.9 958.0
00 25.05 ЮЗ 27 800 м сильная метель ясно -16.2 -18.1 85 -34 -34 опасность
обморожения
980.8 955.4 -18.6 -16.0
03 25.05 ЮЗ 26 800 м сильная метель ясно -15.7 -17.5 86 -33 -33 опасность
обморожения
982.3 956.8
06 25.05 ЮЗ 24 800 м сильная метель ясно -16.2 -18.1 85 -33 -33 опасность
обморожения
985.5 959.8
09 25.05 ЮЗ 21 800 м сильная метель ясно -18.4 -20.5 83 -36 -36 опасность
обморожения
988.4 962.6
12 25.05 ЮЗ 21 900 м сильная метель 1/0
[Cs]
-18.4 -20.5 83 -36 -36 опасность
обморожения
990.3 964.5 -19.1 -15.3
15 25.05 Ю 16 9000 м позёмок {метель} 9/0
[Cs]
-18.2 -20.3 84 -34 -34 опасность
обморожения
991.9 966.1
18 25.05 Ю 13 15 км {метель} 6/0
[Ac lent Cs]
-18.9 -21.0 83 -34 -34 опасность
обморожения
992.2 966.2
21 25.05 Ю 6 15 км 4/0
[Ac As Cs]
-19.1 -21.3 83 -29 -29 993.4 967.4
00 26.05 Ю 4 15 км 6/0
[Ac As Cs]
-18.9 -21.0 83 -27 -27 992.8 966.8 -19.2 -17.4
03 26.05 ЮВ 3 15 км 9/4 1500 м
[Sc Ac As Cs]
-17.9 -19.9 84 -24 -24 992.1 966.2
06 26.05 СВ 2 800 м туман 10/10 60 м
[St]
-17.3 -19.3 84 -23 -23 991.6 965.7
09 26.05 СВ 3 15 км в посл. час туман 1/0
[Ci fib]
-16.7 -18.6 85 -23 -23 990.8 964.9
12 26.05 С 5 15 км {туман} 10/10 360 м
[St]
-15.9 -17.7 86 -25 -25 989.3 963.4 -20.1 -15.9
15 26.05 С 5 <100 м переохл. туман 10/10 120 м
[St]
-15.3 -17.1 86 -24 -24 987.7 962.0
18 26.05 С 5 500 м туман 10/10 120 м
[St]
-15.2 -17.0 86 -24 -24 986.2 960.6
21 26.05 С 5 500 м слабый снег {туман} 10/10 60 м
[St]
-16.7 -18.6 85 -26 -26 985.4 959.8

 

Местоположение метеостанции Marambio Base (Антарктида): широта -64.23 долгота -56.71 высота над уровнем моря 198 м.

В архиве по умолчанию представлена погода в Marambio Base за последнюю неделю. Архивные данные за месяц целиком и за предыдущие месяцы, начиная с января 2011 года, Вы можете получить, выбрав интересующий диапазон дат из раскрывающегося списка и нажав кнопку "Ввод!".


*Определитесь, кто Вы:
робот инопланетянин человек

Внимание! Время в таблицах - всемирное. Для получения местного времени необходимо прибавить поправку, которая в Marambio Base равна 0 ч.

Смотрите также архив погоды в соседних городах и на ближайших метеорологических станциях:

Погода в Esperanza Base (Антарктида) (93 км)
Погода в Bernardo o`Higgins (Антарктида) (118 км)
Погода в Carlini Base (Антарктида) (242 км)
Погода в Captain Arturo Prat Base (Антарктида) (243 км)
Погода в King Sejong (Антарктида) (247 км)
Погода в Great Wall (Антарктида) (251 км)
Погода в Dinamet-Uruguay (Антарктида) (252 км)
Погода в Bellingshausen (Антарктида) (252 км)
Погода в Juan Carlos Island (Антарктида) (253 км)
Погода в Frei Chi-Base (Антарктида) (255 км)

Пояснения к столбцам:

Ветер - указаны скорость ветра в м/с - средняя за 10 мин, порывы в срок и между сроками (в фигурных скобках) и направление, откуда дует ветер: С - северный, СВ - северо-восточный, В - восточный, ЮВ - юго-восточный, Ю - южный, ЮЗ - юго-западный, З - западный, СЗ - северо-западный.
Видимость - горизонтальная дальность видимости в метрах или километрах. При видимости от 1 до 10 км при отсутствии осадков обычно наблюдается дымка, при ухудшении видимости до 1 км и менее - туман. В сухую погоду видимость может ухудшаться дымом, пылью или мглою.
Явления - указаны атмосферные явления, наблюдавшиеся в срок или в последний час перед сроком; фигурными скобками обозначены явления, наблюдавшиеся между сроками (за 1-3 часа до срока); квадратными скобками обозначены град или гололедные отложения с указанием их диаметра в мм.
Облачность - указаны через наклонную черту общая и нижняя облачность в баллах и высота нижней границы облаков в метрах; квадратными скобками обозначены формы облаков: Ci - перистые, Cs - перисто-слоистые, Cc - перисто-кучевые, Ac - высококучевые, As - высокослоистые, Sc - слоисто-кучевые, Ns - слоисто-дождевые, Cu - кучевые, Cb - кучево-дождевые. Подробнее классификацию облаков см. в Атласе облаков (PDF).
T - Температура воздуха - температура, измеренная на высоте 2 м над землей.
Td - Температура точки росы - температура, при понижении до которой содержащийся в воздухе водяной пар достигнет насыщения.
f - Относительная влажность воздуха - влажноcть воздуха, измеренная на высоте 2 м над землей.
Te - Эффективная температура - температура, которую ощущает одетый по сезону человек в тени. Характеристика душности погоды. При расчете учитывается влияние влажности воздуха и скорости ветра на теплоощущения человека.
Tes - Эффективная температура на солнце - температура, которую ощущает человек, с поправкой на солнечный нагрев. Характеристика знойности погоды. Зависит от высоты солнца над горизонтом, облачности и скорости ветра. Ночью, в пасмурную погоду, а также при ветре 12 м/с и более поправка равна нулю.
P - Атмосферное давление - приведенное к уровню моря атмосферное давление.
Po - Атмосферное давление - измеренное на уровне метеостанции атмосферное давление.
Tmin - Минимальная температура - минимум температуры воздуха на высоте 2 м над землей.
Tmax - Максимальная температура - максимум температуры воздуха на высоте 2 м над землей.
R - Количество осадков - Количество выпавших осадков за период времени, мм. При наведении курсора мыши на число - период времени, за который выпало указанное количество осадков.
R24 - Количество осадков - Количество выпавших осадков за 24 часа, мм.
S - Снежный покров - Высота снежного покрова, см. При наведении курсора мыши на число - состояние снежного покрова и степень покрытия местности в баллах.